• In Belarus
  • List of Countries
  • For 7 days
  • Water Temperature
  • Satellite Maps
  • Weather Map
  • Weather Widgets
  • user-avatar
    Login

    Hourly Weather Albena

    Today, 25 November, Saturday

    Time Temperature Precipitation Wind Pressure Humidity
    00:00 +8°C° 0 mm 1 mps 751 mmHg 89%
    01:00 +8°C° 0 mm 1 mps 751 mmHg 90%
    02:00 +7°C° 0 mm 2 mps 751 mmHg 90%
    03:00 +7°C° 0 mm 2 mps 751 mmHg 91%
    04:00 +7°C° 0 mm 2 mps 751 mmHg 91%
    05:00 +7°C° 0 mm 2 mps 751 mmHg 91%
    06:00 +7°C° 0.1 mm 2 mps 751 mmHg 92%
    07:00 +7°C° 0.1 mm 3 mps 751 mmHg 92%
    08:00 +8°C° 0.1 mm 3 mps 751 mmHg 93%
    09:00 +8°C° 0.1 mm 4 mps 751 mmHg 89%
    10:00 +10°C° 0.1 mm 4 mps 751 mmHg 85%
    11:00 +12°C° 0.1 mm 5 mps 751 mmHg 81%
    12:00 +12°C° 0.1 mm 5 mps 751 mmHg 80%
    13:00 +12°C° 0.1 mm 5 mps 751 mmHg 78%
    14:00 +12°C° 0.1 mm 5 mps 750 mmHg 77%
    15:00 +12°C° 0 mm 5 mps 750 mmHg 80%
    16:00 +10°C° 0 mm 5 mps 750 mmHg 83%
    17:00 +9°C° 0 mm 5 mps 750 mmHg 85%
    18:00 +9°C° 0 mm 5 mps 749 mmHg 87%
    19:00 +10°C° 0 mm 4 mps 749 mmHg 89%
    20:00 +8°C° 0 mm 4 mps 749 mmHg 91%
    21:00 +8°C° 0 mm 4 mps 749 mmHg 91%
    22:00 +8°C° 0 mm 4 mps 749 mmHg 92%
    23:00 +8°C° 0 mm 4 mps 749 mmHg 92%

    Tomorrow, 26 November, Sunday

    Time Temperature Precipitation Wind Pressure Humidity
    00:00 +9°C° 0 mm 3 mps 749 mmHg 92%
    01:00 +8°C° 0 mm 3 mps 748 mmHg 93%
    02:00 +8°C° 0 mm 3 mps 748 mmHg 93%
    03:00 +8°C° 0 mm 3 mps 748 mmHg 93%
    04:00 +8°C° 0 mm 3 mps 748 mmHg 93%
    05:00 +8°C° 0 mm 3 mps 747 mmHg 93%
    06:00 +8°C° 0 mm 3 mps 747 mmHg 93%
    07:00 +8°C° 0 mm 3 mps 747 mmHg 92%
    08:00 +8°C° 0 mm 3 mps 747 mmHg 92%
    09:00 +9°C° 0 mm 3 mps 747 mmHg 85%
    10:00 +11°C° 0 mm 3 mps 747 mmHg 78%
    11:00 +12°C° 0 mm 3 mps 747 mmHg 71%
    12:00 +12°C° 0 mm 4 mps 747 mmHg 69%
    13:00 +13°C° 0 mm 4 mps 746 mmHg 68%
    14:00 +13°C° 0 mm 4 mps 746 mmHg 66%
    15:00 +13°C° 0 mm 4 mps 746 mmHg 71%
    16:00 +12°C° 0 mm 3 mps 746 mmHg 75%
    17:00 +11°C° 0 mm 3 mps 746 mmHg 80%
    18:00 +11°C° 0 mm 3 mps 745 mmHg 83%
    19:00 +10°C° 0 mm 3 mps 745 mmHg 85%
    20:00 +10°C° 0 mm 3 mps 745 mmHg 88%
    21:00 +10°C° 0 mm 3 mps 745 mmHg 89%
    22:00 +10°C° 0 mm 4 mps 745 mmHg 90%
    23:00 +10°C° 0 mm 4 mps 745 mmHg 91%

    Day after tomorrow, 27 November, Monday

    Time Temperature Precipitation Wind Pressure Humidity
    00:00 +8°C° 0 mm 4 mps 745 mmHg 92%
    01:00 +8°C° 0 mm 4 mps 745 mmHg 93%
    02:00 +8°C° 0 mm 4 mps 745 mmHg 94%
    03:00 +8°C° 0 mm 4 mps 744 mmHg 94%
    04:00 +9°C° 0 mm 3 mps 744 mmHg 95%
    05:00 +9°C° 0 mm 3 mps 744 mmHg 95%
    06:00 +9°C° 0.1 mm 3 mps 744 mmHg 95%
    07:00 +9°C° 0.1 mm 3 mps 744 mmHg 95%
    08:00 +9°C° 0.1 mm 3 mps 745 mmHg 95%
    09:00 +10°C° 0.1 mm 3 mps 745 mmHg 91%
    10:00 +10°C° 0.1 mm 3 mps 745 mmHg 87%
    11:00 +12°C° 0.1 mm 2 mps 745 mmHg 83%
    12:00 +12°C° 0.1 mm 2 mps 745 mmHg 81%
    13:00 +12°C° 0.1 mm 2 mps 744 mmHg 79%
    14:00 +12°C° 0.1 mm 2 mps 744 mmHg 77%
    15:00 +12°C° 0.1 mm 2 mps 744 mmHg 79%
    16:00 +11°C° 0.1 mm 3 mps 744 mmHg 82%
    17:00 +10°C° 0.1 mm 4 mps 744 mmHg 84%
    18:00 +10°C° 0.5 mm 4 mps 744 mmHg 86%
    19:00 +9°C° 0.5 mm 5 mps 744 mmHg 88%
    20:00 +8°C° 0.5 mm 5 mps 744 mmHg 89%
    21:00 +8°C° 1.8 mm 5 mps 744 mmHg 91%
    22:00 +8°C° 1.8 mm 5 mps 744 mmHg 92%
    23:00 +8°C° 1.8 mm 5 mps 743 mmHg 93%

    28 November, Tuesday

    Time Temperature Precipitation Wind Pressure Humidity
    00:00 +8°C° 0.7 mm 5 mps 743 mmHg 93%
    01:00 +8°C° 0.7 mm 5 mps 743 mmHg 93%
    02:00 +8°C° 0.7 mm 5 mps 742 mmHg 93%
    03:00 +7°C° 0.5 mm 6 mps 742 mmHg 93%
    04:00 +7°C° 0.5 mm 6 mps 742 mmHg 92%
    05:00 +6°C° 0.5 mm 7 mps 742 mmHg 92%
    06:00 +6°C° 1.5 mm 7 mps 742 mmHg 92%
    07:00 +6°C° 1.5 mm 7 mps 742 mmHg 92%
    08:00 +5°C° 1.5 mm 6 mps 742 mmHg 92%
    09:00 +5°C° 3.2 mm 6 mps 742 mmHg 93%
    10:00 +5°C° 3.2 mm 6 mps 742 mmHg 93%
    11:00 +6°C° 3.2 mm 5 mps 742 mmHg 94%
    12:00 +6°C° 1.8 mm 5 mps 742 mmHg 93%
    13:00 +5°C° 1.8 mm 6 mps 742 mmHg 92%
    14:00 +5°C° 1.8 mm 6 mps 741 mmHg 92%
    15:00 +4°C° 1 mm 6 mps 741 mmHg 91%
    16:00 +4°C° 1 mm 6 mps 741 mmHg 91%
    17:00 +4°C° 1 mm 6 mps 741 mmHg 91%
    18:00 +4°C° 0.7 mm 6 mps 742 mmHg 91%
    19:00 +4°C° 0.7 mm 6 mps 742 mmHg 91%
    20:00 +6°C° 0.7 mm 5 mps 742 mmHg 92%
    21:00 +4°C° 0.4 mm 6 mps 742 mmHg 91%
    22:00 +4°C° 0.4 mm 6 mps 742 mmHg 91%
    23:00 +4°C° 0.4 mm 6 mps 742 mmHg 91%

    29 November, Wednesday

    Time Temperature Precipitation Wind Pressure Humidity
    00:00 +4°C° 0.2 mm 6 mps 742 mmHg 90%
    01:00 +3°C° 0.2 mm 6 mps 742 mmHg 90%
    02:00 +3°C° 0.2 mm 6 mps 742 mmHg 89%
    03:00 +3°C° 0.2 mm 6 mps 743 mmHg 88%
    04:00 +2°C° 0.2 mm 5 mps 743 mmHg 88%
    05:00 +2°C° 0.2 mm 5 mps 743 mmHg 88%
    06:00 +2°C° 0.1 mm 5 mps 743 mmHg 87%
    07:00 +2°C° 0.1 mm 5 mps 744 mmHg 87%
    08:00 +2°C° 0.1 mm 5 mps 744 mmHg 86%
    09:00 +4°C° 0.1 mm 4 mps 744 mmHg 85%
    10:00 +4°C° 0.1 mm 3 mps 745 mmHg 83%
    11:00 +5°C° 0.1 mm 3 mps 745 mmHg 81%
    12:00 +6°C° 0 mm 2 mps 745 mmHg 79%
    13:00 +7°C° 0 mm 2 mps 745 mmHg 78%
    14:00 +7°C° 0 mm 2 mps 745 mmHg 76%
    15:00 +7°C° 0 mm 2 mps 745 mmHg 77%
    16:00 +7°C° 0 mm 2 mps 745 mmHg 78%
    17:00 +7°C° 0 mm 2 mps 746 mmHg 79%
    18:00 +6°C° 0 mm 2 mps 746 mmHg 80%
    19:00 +6°C° 0 mm 2 mps 746 mmHg 81%
    20:00 +5°C° 0 mm 3 mps 746 mmHg 82%
    21:00 +5°C° 0 mm 3 mps 746 mmHg 82%
    22:00 +5°C° 0 mm 3 mps 746 mmHg 82%
    23:00 +5°C° 0 mm 3 mps 747 mmHg 82%

    30 November, Thursday

    Time Temperature Precipitation Wind Pressure Humidity
    00:00 +5°C° 0 mm 3 mps 746 mmHg 83%
    01:00 +4°C° 0 mm 4 mps 746 mmHg 84%
    02:00 +4°C° 0 mm 4 mps 746 mmHg 85%
    03:00 +4°C° 0 mm 4 mps 746 mmHg 87%
    04:00 +5°C° 0 mm 4 mps 746 mmHg 88%
    05:00 +5°C° 0 mm 4 mps 745 mmHg 89%
    06:00 +5°C° 0 mm 5 mps 746 mmHg 88%
    07:00 +5°C° 0 mm 5 mps 746 mmHg 88%
    08:00 +4°C° 0 mm 6 mps 746 mmHg 87%
    09:00 +6°C° 0 mm 7 mps 745 mmHg 84%
    10:00 +8°C° 0 mm 7 mps 745 mmHg 80%
    11:00 +10°C° 0 mm 8 mps 745 mmHg 77%
    12:00 +10°C° 0 mm 8 mps 745 mmHg 76%
    13:00 +10°C° 0 mm 8 mps 744 mmHg 75%
    14:00 +10°C° 0 mm 8 mps 744 mmHg 74%
    15:00 +10°C° 0 mm 8 mps 743 mmHg 75%
    16:00 +10°C° 0 mm 8 mps 743 mmHg 76%
    17:00 +10°C° 0 mm 8 mps 743 mmHg 77%
    18:00 +10°C° 0 mm 8 mps 743 mmHg 78%
    19:00 +10°C° 0 mm 8 mps 742 mmHg 80%
    20:00 +10°C° 0 mm 9 mps 742 mmHg 81%
    21:00 +10°C° 0 mm 8 mps 742 mmHg 82%
    22:00 +10°C° 0 mm 8 mps 742 mmHg 82%
    23:00 +10°C° 0 mm 8 mps 742 mmHg 83%
    Show more